sat.trackr.live / text

‹ back to catalog

STARLINK-32125

NORAD 60260 · 2024-131F

PAYLOAD ACTIVE UNKNOWN

§ Identity

Operator
Country
US
Launch date
2024-07-27
Launch site
AFETR
Launch vehicle
Mass (kg)
RCS (m²)

Purposes: comms

External: N2YO · Heavens-Above · Gunter

§ Orbital elements

Epoch: 2026-09-21T02:30:29.765952Z

Period
93.85 min
Inclination
53.1590°
Eccentricity
0.0001244
Mean motion
15.34393463 rev/d
Perigee alt
461.9 km
Apogee alt
463.6 km
Semi-major
6,840.9 km
B*
2.5774e-5
RAAN
222.9015°
Arg perigee
83.2133°
Mean anomaly
276.9011°
Rev number
12,166

§ Raw data

STARLINK-321251 60260U 24131F   26264.10451118  .00000494  00000+0  25774-4 0  99912 60260  53.1590 222.9015 0001244  83.2133 276.9011 15.34393463121664

JSON: /api/v1/satellites/60260 · /tle

For live sub-satellite position, see the globe view (requires WebGL).

§ Visibility from observer

Set your observer location to see the next 7 days of passes ≥ 10°. The values pass through the URL so the page stays shareable.

No JS? Fill the form by hand. The geolocation button needs JavaScript.